Location: Boca de Tacagua
(10.5333°N, 66.9833°W)
Time: 04:45:56
(UTC+00:00)

Cosmos 1536 - Pass Details

Date: 02 July 2022
Orbit: 536 x 556 km, 82.5° (Epoch: 14 August)

Event Time Altitude Azimuth Distance (km) Brightness Sun altitude
Exits shadow 08:49:13 22° 180° (S) 1,221 4.3 -18.7°
Maximum altitude 08:51:43 82° 93° (E) 559 2.8 -18.2°
Drops below altitude 10° 08:55:44 10° 6° (N) 1,825 5.9 -17.3°
Sets 08:57:54 0° 6° (N) 2,721 6.9 -16.8°
